RH
45 53 85 100 100 70 54 30 22 19 18 16 15 16 23 56 97 100 100 89 82 73 62 59 54 52 43 38 35 36 41 45 48 43 44 44 50 48 50 66 73 68 51 48 55 61 62
67 100 100 96 62 56 36 24 22 21 20 19 19 17 19 28 38 57 77 85 80 85 78 64 58 46 38 41 65 64 72 76 80 78 67 70 65 54 64 52 55 65 84 70 64 63 65
100 98 56 54 62 38 28 24 21 26 30 29 30 32 29 28 38 57 57 55 73 85 61 41 38 44 62 77 99 100 100 100 100 100 69 88 87 65 49 58 64 45 53 61 78 96 86
100 72 68 60 40 33 27 23 26 24 26 24 45 41 35 34 36 35 57 71 51 52 71 79 80 92 92 100 100 98 90 92 98 100 100 100 98 84 69 68 52 52 49 54 67 66 62
88 83 55 44 33 32 29 28 37 31 33 44 45 55 63 67 61 57 58 67 77 78 75 86 88 91 95 100 100 100 95 99 100 100 100 100 100 100 100 96 97 100 80 42 48 58 47
73 49 39 35 35 30 29 28 40 46 54 58 61 70 79 89 87 66 70 86 100 100 100 100 100 100 100 100 100 100 100 100 100 100 100 100 100 100 100 100 100 99 80 69 65 76 57
45 37 34 35 33 28 35 39 62 62 76 82 81 87 89 98 100 100 100 96 98 100 99 81 80 100 100 100 100 100 100 100 100 100 100 100 100 100 100 81 80 90 86 84 89 78 65
36 33 33 35 41 36 44 72 94 95 94 98 99 92 87 88 100 100 99 100 100 98 96 89 87 93 100 98 100 100 100 100 100 100 100 100 100 100 100 100 98 95 98 90 92 76 65
33 32 37 41 56 69 79 82 66 88 88 68 71 72 66 67 83 87 81 64 66 66 75 86 82 80 80 84 99 100 97 82 94 97 97 100 98 99 97 96 90 89 87 85 79 79 65
31 34 47 51 60 69 88 84 89 89 68 69 45 52 61 61 58 62 71 76 74 79 71 69 80 82 88 95 98 96 94 88 66 58 60 76 90 97 84 88 78 82 82 78 69 62 52
35 46 48 50 68 69 84 99 100 78 78 48 40 45 64 68 56 55 53 64 66 62 56 58 44 53 51 46 44 40 43 49 59 57 58 58 54 52 52 50 40 52 45 41 46 33 37
46 52 56 56 58 66 74 66 62 48 41 41 52 49 44 50 58 65 62 62 44 39 35 34 37 33 36 32 41 61 62 49 51 55 36 19 19 25 21 20 20 22 23 24 22 23 28
48 55 55 60 63 55 47 49 42 46 65 72 67 48 49 62 56 51 50 39 34 34 39 42 42 42 34 20 31 43 30 23 19 19 19 18 19 19 19 20 20 20 20 21 22 22 22
48 51 51 58 64 57 50 61 81 70 54 42 44 49 52 56 55 41 43 30 31 38 44 38 30 32 19 20 19 19 19 18 19 18 17 18 20 21 22 21 21 21 22 23 22 21 21
45 81 69 59 76 63 77 74 56 38 36 32 38 49 43 53 47 43 40 22 29 40 37 23 22 21 19 20 20 19 19 19 19 18 19 19 21 21 21 21 20 20 20 20 19 18 18
79 79 69 64 74 70 49 41 42 30 31 36 34 49 37 35 38 29 31 20 24 28 22 21 20 20 21 21 19 19 19 19 20 20 20 20 20 20 19 19 19 19 18 18 17 17 17
84 82 63 54 52 40 42 38 31 37 39 43 39 33 30 40 29 23 20 21 22 20 19 18 18 17 18 18 18 18 18 18 19 20 20 20 20 20 19 19 19 18 18 18 18 17 16
90 88 70 54 44 46 38 32 40 35 32 30 28 23 26 22 21 17 19 21 20 19 17 16 15 16 17 17 18 18 19 19 19 20 19 19 20 20 19 19 19 19 20 19 19 20 20
96 67 61 44 37 34 36 37 44 37 29 27 23 21 17 16 19 18 18 18 18 16 14 14 14 14 15 16 16 17 17 17 17 16 16 17 17 18 18 18 18 19 20 21 20 20 20
56 45 40 32 35 31 34 40 56 50 38 18 16 14 16 16 18 15 15 15 14 14 14 13 13 12 13 14 14 14 14 14 14 14 14 14 15 16 18 18 17 18 18 20 20 21 22
40 36 37 33 27 35 51 50 51 44 26 16 15 13 13 16 15 13 12 11 12 11 10 10 11 10 11 13 13 13 14 13 13 12 12 14 16 16 16 19 18 18 21 21 23 22 22
38 32 35 41 32 57 56 43 35 30 17 14 14 13 13 12 11 11 11 10 9 10 10 10 9 10 11 12 13 14 12 13 15 15 16 16 18 18 21 19 21 20 20 19 18 22 23
36 37 33 38 57 52 53 41 31 19 14 10 12 13 10 10 8 8 9 9 9 9 9 8 6 8 8 8 8 8 9 10 11 13 14 17 21 21 24 23 25 28 22 24 25 24 26
43 30 37 49 58 53 54 37 21 17 14 13 12 10 9 6 6 6 8 6 5 5 6 6 5 6 7 8 7 8 8 9 9 11 12 12 13 15 17 19 24 24 26 26 25 25 26
33 40 51 72 58 52 54 34 16 15 14 14 12 10 8 6 7 6 5 5 5 5 6 5 5 5 5 6 7 7 7 8 8 10 10 11 11 12 14 15 16 18 18 18 19 18 18
44 38 63 56 62 56 44 22 15 14 13 12 11 8 8 8 6 5 5 5 5 5 5 5 5 6 6 6 7 8 8 8 9 10 10 11 12 13 15 18 19 19 21 19 21 21 21
47 54 63 77 67 59 36 16 14 13 14 12 9 8 7 6 6 5 5 5 5 5 5 5 6 6 6 7 7 7 8 8 9 10 10 11 13 14 15 16 18 20 23 26 30 30 28
61 65 66 65 55 56 29 16 14 14 11 10 8 8 6 6 5 5 6 6 6 6 6 6 7 7 7 7 8 8 8 9 10 11 11 12 13 14 16 18 22 25 29 34 35 33 31
57 60 66 81 52 41 16 15 14 13 11 9 9 7 6 6 5 6 7 7 7 7 8 8 8 9 9 10 10 10 10 11 12 13 14 14 16 18 21 23 22 23 22 22 23 21 21
Wind_Speed
46 48 46 45 47 57 60 60 53 47 45 44 44 42 40 39 38 41 42 45 42 42 44 44 44 47 49 48 51 52 49 49 51 55 55 51 48 51 51 49 48 42 47 45 44 43 52
46 46 45 50 59 58 51 46 44 47 47 47 47 43 41 39 39 38 43 43 45 42 40 44 47 50 50 51 53 58 56 58 58 59 58 58 58 58 55 57 54 54 49 52 52 52 53
46 47 56 59 54 45 46 46 46 46 44 46 46 45 45 43 41 39 39 40 41 43 49 50 52 52 54 62 61 60 62 65 64 61 58 60 64 62 60 59 61 58 59 59 58 60 60
46 56 59 50 43 42 46 46 44 44 40 38 40 39 39 39 42 40 40 44 47 48 48 52 53 57 60 62 62 63 62 65 69 70 70 66 67 66 64 66 65 64 64 63 67 71 69
53 57 50 40 39 40 43 42 41 40 41 40 41 48 45 42 40 40 44 50 51 52 56 58 56 56 59 62 65 66 68 68 71 74 74 75 77 76 77 73 71 72 73 70 69 74 73
53 53 39 38 41 41 43 38 45 46 46 42 46 50 50 49 55 54 54 58 58 60 62 64 65 69 70 73 73 75 76 77 78 78 81 83 81 81 83 87 82 82 80 77 73 74 76
52 40 37 40 38 39 41 40 47 48 50 50 49 53 56 58 60 63 68 68 70 71 75 73 74 76 78 81 82 84 84 85 88 90 89 88 88 88 92 92 91 92 90 84 82 84 82
49 35 37 41 43 44 43 48 53 54 53 56 58 60 64 66 66 67 66 65 68 71 73 82 81 83 85 87 90 92 91 93 94 95 94 96 93 97 98 99 99 99 99 94 91 92 87
37 34 41 41 41 45 48 51 52 56 60 64 65 67 69 72 74 74 77 77 79 81 80 80 84 89 93 94 95 96 94 98 100 99 100 100 103 103 104 104 102 100 99 97 96 95 92
32 39 42 41 45 51 55 58 60 64 71 75 72 72 73 79 81 85 87 88 89 92 91 87 91 96 100 103 103 105 104 106 106 105 106 103 106 105 107 103 100 96 95 94 92 89 87
39 37 44 47 53 57 63 68 71 74 77 76 79 81 84 88 89 89 89 97 99 99 101 99 99 102 103 106 107 108 108 110 111 107 107 101 97 96 93 91 88 83 86 83 82 84 82
38 45 51 56 56 63 69 73 75 75 78 83 87 87 90 95 94 97 105 104 101 105 106 109 106 110 110 106 104 103 104 101 98 97 87 82 80 79 79 78 78 75 76 76 75 75 72
47 54 58 63 65 67 69 70 74 79 84 90 95 98 100 102 104 107 110 108 106 106 109 105 106 103 100 92 88 87 88 88 84 79 76 75 73 72 70 71 71 71 70 71 70 68 64
54 57 55 58 62 65 70 76 83 86 88 87 92 103 106 111 113 113 114 115 110 104 103 101 97 94 90 85 83 82 80 78 76 74 71 69 66 67 66 67 66 66 66 67 67 66 66
49 61 66 69 74 78 81 85 87 92 89 91 97 106 111 113 115 114 113 111 104 98 96 95 90 88 86 83 82 78 76 74 72 71 69 65 63 64 64 65 64 62 64 66 67 65 65
65 69 74 78 80 84 86 89 93 100 100 101 103 116 116 115 113 109 106 105 99 94 91 88 84 83 83 83 82 79 76 72 70 69 68 66 63 63 63 64 64 64 64 66 67 65 63
72 76 81 81 85 88 95 98 100 101 106 109 114 114 115 112 106 98 97 93 92 91 86 82 80 77 78 78 79 80 77 73 71 71 70 68 66 63 64 64 65 65 65 67 68 67 65
77 81 85 90 95 98 100 102 105 109 114 119 119 115 105 101 98 92 89 90 87 87 85 81 78 78 76 77 75 76 76 74 72 71 71 70 67 67 66 66 66 67 68 69 69 69 68
82 85 90 94 97 100 107 113 118 122 125 123 112 103 104 95 91 91 89 87 85 83 83 81 79 76 74 74 72 74 75 73 75 74 72 71 69 69 70 69 69 68 69 69 71 71 70
84 88 93 96 102 106 115 120 128 130 132 122 109 100 95 91 89 86 86 84 85 84 80 80 79 76 74 74 70 70 71 66 69 67 67 65 64 63 63 66 70 71 70 71 73 73 73
87 93 101 106 109 117 124 129 132 137 131 113 107 100 95 90 90 88 88 85 82 81 78 76 74 72 70 70 69 68 66 65 66 64 63 58 58 59 56 58 60 60 62 66 68 71 69
95 99 107 112 117 127 132 137 137 133 123 112 106 101 92 90 90 87 89 85 80 80 79 77 76 75 73 72 72 75 70 70 69 64 62 60 59 58 58 56 56 56 57 58 58 60 61
99 105 113 117 124 133 140 139 134 123 116 108 105 100 94 89 87 84 82 82 80 81 79 77 74 69 68 65 64 63 64 65 63 67 67 65 65 63 62 60 58 62 59 58 59 59 60
107 112 118 123 129 140 142 143 126 117 115 110 104 99 97 91 83 81 82 77 71 68 67 66 63 58 56 56 53 52 50 51 50 53 57 59 59 61 67 65 68 67 69 69 68 67 68
111 115 123 128 136 143 144 142 118 113 112 108 104 101 98 91 89 81 74 69 66 63 61 59 56 52 48 45 45 46 43 42 41 43 44 47 47 47 50 50 53 55 60 61 61 62 62
114 120 128 134 142 147 147 130 120 112 107 105 101 97 92 90 82 73 69 64 59 55 52 49 45 42 39 36 34 36 37 34 36 38 37 38 38 38 39 40 41 44 48 49 49 50 51
117 125 130 138 145 148 142 122 116 110 104 100 97 92 89 79 75 69 61 55 50 47 43 41 38 36 34 32 31 30 31 31 32 33 32 33 34 33 34 36 37 38 39 40 42 42 43
122 128 134 144 144 147 138 123 115 106 101 98 93 91 82 71 65 58 53 49 45 42 39 37 34 32 31 29 28 28 27 27 27 27 28 29 30 30 31 31 32 33 33 35 37 37 37
126 132 140 145 149 142 127 120 112 104 98 95 90 85 75 69 61 56 52 48 44 40 36 34 32 30 28 26 26 25 25 24 25 24 25 26 25 25 26 27 28 28 29 29 29 30 29
Wind_Direction
314 312 310 305 310 312 315 320 320 313 316 315 313 310 309 298 296 294 294 293 294 295 291 293 295 296 296 297 302 301 307 307 307 306 305 302 300 296 288 284 279 277 269 268 263 269 267
314 310 306 310 312 313 320 319 315 314 317 317 316 314 310 311 310 302 294 293 295 294 297 294 291 294 299 302 303 305 304 303 304 304 302 302 301 302 296 288 284 279 274 270 268 272 267
310 313 314 312 318 322 320 318 319 318 319 319 320 320 314 312 310 308 311 310 306 296 297 296 298 298 301 303 301 302 301 300 297 297 294 295 295 294 293 287 281 282 279 272 275 270 266
310 311 311 322 323 318 320 321 322 323 327 329 336 338 330 316 313 306 309 308 307 304 307 305 304 298 299 298 296 294 294 293 294 295 294 291 293 292 291 288 289 286 279 277 270 270 268
310 317 325 320 318 318 323 323 335 332 332 333 333 332 332 330 324 317 313 315 313 309 307 306 305 301 300 298 298 299 296 294 293 292 290 290 287 289 291 289 285 282 279 278 273 273 272
320 326 319 316 317 317 323 327 329 332 331 323 325 325 322 318 321 318 315 314 310 306 304 302 298 298 299 296 296 295 294 294 293 291 290 287 286 287 287 283 282 280 281 279 276 271 267
323 323 316 325 319 317 328 323 326 324 323 322 314 316 314 312 308 308 309 310 307 306 303 300 297 297 296 295 294 294 293 292 292 290 286 287 285 281 279 278 278 279 278 275 273 271 268
318 313 316 315 322 319 317 320 317 318 318 319 318 318 317 314 314 310 302 298 298 298 298 295 292 292 291 290 289 288 289 288 287 285 284 283 283 280 280 280 278 276 276 275 272 272 270
309 309 312 315 315 314 319 320 321 320 320 320 317 314 313 313 311 310 308 305 303 301 299 295 292 290 289 287 286 285 283 283 284 281 281 281 279 278 277 276 276 275 274 273 270 271 269
306 310 312 309 308 306 316 317 318 316 316 316 317 314 315 315 311 309 307 304 301 299 297 294 289 287 286 284 283 282 281 282 281 279 281 281 279 278 277 278 277 275 273 271 270 268 267
308 308 310 309 308 315 316 317 315 314 314 314 316 315 313 314 310 308 305 306 302 296 294 293 288 284 284 281 279 279 279 280 278 277 279 280 278 278 276 275 274 271 271 269 267 264 261
307 305 306 313 315 313 313 312 311 315 315 315 317 315 313 313 311 310 311 305 301 296 294 292 291 289 286 286 280 281 281 282 283 280 278 277 277 275 274 273 273 269 268 266 263 260 259
303 310 313 313 310 311 312 314 314 317 317 317 315 315 314 313 312 309 310 306 301 298 294 292 292 291 292 292 289 286 286 284 282 280 279 278 277 276 273 271 269 268 265 263 261 259 256
311 314 316 318 319 319 317 317 316 317 317 318 317 316 314 314 311 310 309 305 302 301 297 297 298 295 294 293 292 290 286 284 284 281 280 278 276 273 271 269 268 266 263 261 259 258 255
315 323 323 322 322 318 317 317 315 317 317 315 314 315 314 313 312 310 308 304 302 300 299 298 297 296 294 293 290 288 285 283 282 280 279 276 273 271 270 267 265 263 263 261 260 256 255
326 326 323 322 321 319 316 319 319 316 315 317 316 317 313 311 311 308 306 304 302 299 297 295 293 292 291 291 289 286 284 281 279 279 276 273 271 268 267 265 264 262 261 261 260 257 255
325 325 323 323 321 320 321 321 320 320 322 321 317 316 312 311 308 307 305 304 302 300 297 295 294 291 289 287 285 284 283 281 280 277 274 273 271 266 265 263 262 261 259 259 260 260 258
321 322 321 320 321 323 325 325 324 322 321 320 319 317 314 312 309 308 306 304 302 300 299 296 294 292 289 285 283 281 280 279 278 275 274 272 268 268 265 264 262 261 260 259 258 258 257
320 320 321 322 325 327 328 329 328 326 325 321 319 316 315 313 312 310 308 306 302 299 297 295 293 291 288 286 283 282 280 279 278 276 274 272 269 266 264 262 260 257 257 257 258 257 256
322 325 324 326 328 327 332 332 329 327 326 322 320 320 317 315 312 310 307 305 302 301 298 296 294 293 291 288 286 283 281 280 278 277 275 273 272 268 264 263 260 258 256 256 257 257 256
324 328 331 331 329 333 334 331 330 328 325 324 323 321 319 317 314 312 309 307 304 300 299 297 295 292 290 288 286 283 281 280 278 277 276 274 272 270 268 265 263 261 259 255 256 256 257
329 331 332 334 333 335 332 332 329 328 326 325 324 322 320 318 316 314 310 308 306 303 302 298 295 291 288 285 282 280 280 278 277 276 274 273 271 270 268 266 265 262 257 259 256 256 256
329 331 334 335 335 335 335 332 331 328 328 326 326 323 322 320 318 316 313 310 306 303 299 297 295 293 290 287 284 283 280 277 273 271 272 270 268 267 265 264 264 263 265 260 258 257 256
330 332 335 336 335 335 335 334 330 330 328 328 326 326 324 323 322 319 315 311 308 305 302 298 298 295 293 290 287 283 281 278 274 271 269 269 267 265 263 264 262 263 263 262 262 261 259
331 336 338 335 336 337 335 335 331 331 331 328 329 327 326 325 324 322 318 316 312 309 305 303 301 299 297 293 288 287 284 280 277 271 269 268 267 265 263 261 261 260 260 261 260 260 259
336 336 337 336 337 337 336 334 335 333 332 331 329 328 327 326 325 324 322 319 315 312 309 308 307 305 302 299 293 289 286 281 275 274 270 268 266 263 261 259 256 254 256 259 259 259 259
336 336 336 337 337 337 337 334 334 334 333 332 331 330 330 328 327 327 324 323 321 318 316 313 312 310 306 301 297 291 286 281 278 275 272 268 265 263 260 257 257 258 258 258 259 261 260
335 336 336 338 338 336 337 337 335 334 335 334 334 333 332 331 330 328 328 328 328 327 325 324 321 317 313 309 305 301 295 288 282 276 271 267 264 261 259 257 256 255 254 254 255 257 260
336 336 337 337 338 339 336 337 336 336 337 336 336 336 336 336 336 336 335 335 335 334 332 330 327 321 315 311 304 298 293 287 282 278 273 270 269 267 263 257 254 251 252 254 255 256 255